Time,TemperatureF,DewpointF,PressureIn,WindDirection,WindDirectionDegrees,WindSpeedMPH,WindSpeedGustMPH,Humidity,HourlyPrecipIn,Conditions,Clouds,dailyrainin,SolarRadiationWatts/m^2,SoftwareType,DateUTC
2013-04-08 00:02:00,35.0,32.0,-100.00,NNE,16,16.0,22.0,89,0.00,,,0.00,0.000000,,2013-04-08 06:02:00,
2013-04-08 00:12:00,35.0,32.0,-100.00,NNE,16,16.0,22.0,89,0.00,,,0.00,0.000000,,2013-04-08 06:12:00,
2013-04-08 00:22:00,35.0,32.0,-100.00,NNE,16,16.0,22.0,89,0.00,,,0.00,0.000000,,2013-04-08 06:22:00,
2013-04-08 00:32:00,35.0,32.0,-100.00,NNE,16,16.0,22.0,89,0.00,,,0.00,0.000000,,2013-04-08 06:32:00,
2013-04-08 00:40:00,34.0,32.0,-100.00,North,3,11.0,22.0,93,0.00,,,0.00,0.000000,,2013-04-08 06:40:00,
2013-04-08 01:02:00,34.0,32.0,-100.00,North,3,11.0,22.0,93,0.00,,,0.00,0.000000,,2013-04-08 07:02:00,
2013-04-08 01:12:00,34.0,32.0,-100.00,North,3,11.0,22.0,93,0.00,,,0.00,0.000000,,2013-04-08 07:12:00,
2013-04-08 01:22:00,34.0,32.0,-100.00,North,3,11.0,22.0,93,0.00,,,0.00,0.000000,,2013-04-08 07:22:00,
2013-04-08 01:33:00,34.0,32.0,-100.00,North,3,11.0,22.0,93,0.00,,,0.00,0.000000,,2013-04-08 07:33:00,
2013-04-08 01:40:00,32.0,31.0,-100.00,NNE,18,18.0,26.0,95,0.00,,,0.00,0.000000,,2013-04-08 07:40:00,
2013-04-08 02:02:00,32.0,31.0,-100.00,NNE,18,18.0,26.0,95,0.00,,,0.00,0.000000,,2013-04-08 08:02:00,
2013-04-08 02:12:00,32.0,31.0,-100.00,NNE,18,18.0,26.0,95,0.00,,,0.00,0.000000,,2013-04-08 08:12:00,
2013-04-08 02:22:00,32.0,31.0,-100.00,NNE,18,18.0,26.0,95,0.00,,,0.00,0.000000,,2013-04-08 08:22:00,
2013-04-08 02:33:00,32.0,31.0,-100.00,NNE,18,18.0,26.0,95,0.00,,,0.00,0.000000,,2013-04-08 08:33:00,
2013-04-08 02:40:00,33.0,32.0,-100.00,NNE,22,15.0,26.0,95,0.00,,,0.00,0.000000,,2013-04-08 08:40:00,
2013-04-08 03:02:00,33.0,32.0,-100.00,NNE,22,15.0,26.0,95,0.00,,,0.00,0.000000,,2013-04-08 09:02:00,
2013-04-08 03:12:00,33.0,32.0,-100.00,NNE,22,15.0,26.0,95,0.00,,,0.00,0.000000,,2013-04-08 09:12:00,
2013-04-08 03:22:00,33.0,32.0,-100.00,NNE,22,15.0,26.0,95,0.00,,,0.00,0.000000,,2013-04-08 09:22:00,
2013-04-08 03:33:00,33.0,32.0,-100.00,NNE,22,15.0,26.0,95,0.00,,,0.00,0.000000,,2013-04-08 09:33:00,
2013-04-08 03:40:00,33.0,32.0,-100.00,NNE,31,12.0,21.0,95,0.00,,,0.00,0.000000,,2013-04-08 09:40:00,
2013-04-08 04:03:00,33.0,32.0,-100.00,NNE,31,12.0,21.0,95,0.00,,,0.00,0.000000,,2013-04-08 10:03:00,
2013-04-08 04:13:00,33.0,32.0,-100.00,NNE,31,12.0,21.0,95,0.00,,,0.00,0.000000,,2013-04-08 10:13:00,
2013-04-08 04:23:00,33.0,32.0,-100.00,NNE,31,12.0,21.0,95,0.00,,,0.00,0.000000,,2013-04-08 10:23:00,
2013-04-08 04:33:00,33.0,32.0,-100.00,NNE,31,12.0,21.0,95,0.00,,,0.00,0.000000,,2013-04-08 10:33:00,
2013-04-08 04:40:00,32.0,31.0,-100.00,NNE,31,11.0,21.0,97,0.00,,,0.00,0.000000,,2013-04-08 10:40:00,
2013-04-08 05:02:00,32.0,31.0,-100.00,NNE,31,11.0,21.0,97,0.00,,,0.00,0.000000,,2013-04-08 11:02:00,
2013-04-08 05:12:00,32.0,31.0,-100.00,NNE,31,11.0,21.0,97,0.00,,,0.00,0.000000,,2013-04-08 11:12:00,
2013-04-08 05:22:00,32.0,31.0,-100.00,NNE,31,11.0,21.0,97,0.00,,,0.00,0.000000,,2013-04-08 11:22:00,
2013-04-08 05:32:00,32.0,31.0,-100.00,NNE,31,11.0,21.0,97,0.00,,,0.00,0.000000,,2013-04-08 11:32:00,
2013-04-08 05:40:00,32.0,31.0,-100.00,NNE,27,11.0,23.0,96,0.00,,,0.00,0.000000,,2013-04-08 11:40:00,
2013-04-08 06:03:00,32.0,31.0,-100.00,NNE,27,11.0,23.0,96,0.00,,,0.00,0.000000,,2013-04-08 12:03:00,
2013-04-08 06:12:00,32.0,31.0,-100.00,NNE,27,11.0,23.0,96,0.00,,,0.00,0.000000,,2013-04-08 12:12:00,
2013-04-08 06:23:00,32.0,31.0,-100.00,NNE,27,11.0,23.0,96,0.00,,,0.00,0.000000,,2013-04-08 12:23:00,
2013-04-08 06:33:00,32.0,31.0,-100.00,NNE,27,11.0,23.0,96,0.00,,,0.00,0.000000,,2013-04-08 12:33:00,
2013-04-08 06:40:00,31.0,31.0,-100.00,NNE,21,9.0,16.0,98,0.00,,,0.00,0.000000,,2013-04-08 12:40:00,
2013-04-08 07:03:00,31.0,31.0,-100.00,NNE,21,9.0,16.0,98,0.00,,,0.00,0.000000,,2013-04-08 13:03:00,
2013-04-08 07:12:00,31.0,31.0,-100.00,NNE,21,9.0,16.0,98,0.00,,,0.00,0.000000,,2013-04-08 13:12:00,
2013-04-08 07:22:00,31.0,31.0,-100.00,NNE,21,9.0,16.0,98,0.00,,,0.00,0.000000,,2013-04-08 13:22:00,
2013-04-08 07:32:00,31.0,31.0,-100.00,NNE,21,9.0,16.0,98,0.00,,,0.00,0.000000,,2013-04-08 13:32:00,
2013-04-08 07:40:00,29.0,28.0,-100.00,North,358,13.0,17.0,97,0.00,,,0.00,17.000000,,2013-04-08 13:40:00,
2013-04-08 08:03:00,29.0,28.0,-100.00,North,358,13.0,17.0,97,0.00,,,0.00,17.000000,,2013-04-08 14:03:00,
2013-04-08 08:12:00,29.0,28.0,-100.00,North,358,13.0,17.0,97,0.00,,,0.00,17.000000,,2013-04-08 14:12:00,
2013-04-08 08:22:00,29.0,28.0,-100.00,North,358,13.0,17.0,97,0.00,,,0.00,17.000000,,2013-04-08 14:22:00,
2013-04-08 08:32:00,29.0,28.0,-100.00,North,358,13.0,17.0,97,0.00,,,0.00,17.000000,,2013-04-08 14:32:00,
2013-04-08 08:40:00,27.0,25.0,-100.00,North,7,19.0,25.0,93,0.00,,,0.00,74.000000,,2013-04-08 14:40:00,
2013-04-08 09:02:00,27.0,25.0,-100.00,North,7,19.0,25.0,93,0.00,,,0.00,74.000000,,2013-04-08 15:02:00,
2013-04-08 09:12:00,27.0,25.0,-100.00,North,7,19.0,25.0,93,0.00,,,0.00,74.000000,,2013-04-08 15:12:00,
2013-04-08 09:22:00,27.0,25.0,-100.00,North,7,19.0,25.0,93,0.00,,,0.00,74.000000,,2013-04-08 15:22:00,
2013-04-08 09:33:00,27.0,25.0,-100.00,North,7,19.0,25.0,93,0.00,,,0.00,74.000000,,2013-04-08 15:33:00,
2013-04-08 09:40:00,24.0,21.0,-100.00,North,11,21.0,31.0,89,0.00,,,0.00,176.000000,,2013-04-08 15:40:00,
2013-04-08 10:03:00,24.0,21.0,-100.00,North,11,21.0,31.0,89,0.00,,,0.00,176.000000,,2013-04-08 16:03:00,
2013-04-08 10:13:00,24.0,21.0,-100.00,North,11,21.0,31.0,89,0.00,,,0.00,176.000000,,2013-04-08 16:13:00,
2013-04-08 10:23:00,24.0,21.0,-100.00,North,11,21.0,31.0,89,0.00,,,0.00,176.000000,,2013-04-08 16:23:00,
2013-04-08 10:32:00,24.0,21.0,-100.00,North,11,21.0,31.0,89,0.00,,,0.00,176.000000,,2013-04-08 16:32:00,
2013-04-08 10:40:00,23.0,19.0,-100.00,North,11,19.0,29.0,86,0.00,,,0.00,343.000000,,2013-04-08 16:40:00,
2013-04-08 11:03:00,23.0,19.0,-100.00,North,11,19.0,29.0,86,0.00,,,0.00,343.000000,,2013-04-08 17:03:00,
2013-04-08 11:12:00,23.0,19.0,-100.00,North,11,19.0,29.0,86,0.00,,,0.00,343.000000,,2013-04-08 17:12:00,
2013-04-08 11:22:00,23.0,19.0,-100.00,North,11,19.0,29.0,86,0.00,,,0.00,343.000000,,2013-04-08 17:22:00,
2013-04-08 11:32:00,23.0,19.0,-100.00,North,11,19.0,29.0,86,0.00,,,0.00,343.000000,,2013-04-08 17:32:00,
2013-04-08 11:40:00,23.0,18.0,-100.00,North,8,21.0,29.0,82,0.00,,,0.00,636.000000,,2013-04-08 17:40:00,
2013-04-08 12:02:00,23.0,18.0,-100.00,North,8,21.0,29.0,82,0.00,,,0.00,636.000000,,2013-04-08 18:02:00,
2013-04-08 12:12:00,23.0,18.0,-100.00,North,8,21.0,29.0,82,0.00,,,0.00,636.000000,,2013-04-08 18:12:00,
2013-04-08 12:23:00,23.0,18.0,-100.00,North,8,21.0,29.0,82,0.00,,,0.00,636.000000,,2013-04-08 18:23:00,
2013-04-08 12:32:00,23.0,18.0,-100.00,North,8,21.0,29.0,82,0.00,,,0.00,636.000000,,2013-04-08 18:32:00,
2013-04-08 12:40:00,23.0,17.0,-100.00,NNE,15,18.0,31.0,78,0.00,,,0.00,680.000000,,2013-04-08 18:40:00,
2013-04-08 13:02:00,23.0,17.0,-100.00,NNE,15,18.0,31.0,78,0.00,,,0.00,680.000000,,2013-04-08 19:02:00,
2013-04-08 13:12:00,23.0,17.0,-100.00,NNE,15,18.0,31.0,78,0.00,,,0.00,680.000000,,2013-04-08 19:12:00,
2013-04-08 13:23:00,23.0,17.0,-100.00,NNE,15,18.0,31.0,78,0.00,,,0.00,680.000000,,2013-04-08 19:23:00,
2013-04-08 13:33:00,23.0,17.0,-100.00,NNE,15,18.0,31.0,78,0.00,,,0.00,680.000000,,2013-04-08 19:33:00,
2013-04-08 13:40:00,23.0,17.0,-100.00,NNE,18,16.0,27.0,76,0.00,,,0.00,706.000000,,2013-04-08 19:40:00,
2013-04-08 14:02:00,23.0,17.0,-100.00,NNE,18,16.0,27.0,76,0.00,,,0.00,706.000000,,2013-04-08 20:02:00,
2013-04-08 14:12:00,23.0,17.0,-100.00,NNE,18,16.0,27.0,76,0.00,,,0.00,706.000000,,2013-04-08 20:12:00,
2013-04-08 14:23:00,23.0,17.0,-100.00,NNE,18,16.0,27.0,76,0.00,,,0.00,706.000000,,2013-04-08 20:23:00,
2013-04-08 14:33:00,23.0,17.0,-100.00,NNE,18,16.0,27.0,76,0.00,,,0.00,706.000000,,2013-04-08 20:33:00,
2013-04-08 14:40:00,23.0,17.0,-100.00,NNE,16,17.0,23.0,76,0.00,,,0.00,527.000000,,2013-04-08 20:40:00,
2013-04-08 15:02:00,23.0,17.0,-100.00,NNE,16,17.0,23.0,76,0.00,,,0.00,527.000000,,2013-04-08 21:02:00,
2013-04-08 15:12:00,23.0,17.0,-100.00,NNE,16,17.0,23.0,76,0.00,,,0.00,527.000000,,2013-04-08 21:12:00,
2013-04-08 15:22:00,23.0,17.0,-100.00,NNE,16,17.0,23.0,76,0.00,,,0.00,527.000000,,2013-04-08 21:22:00,
2013-04-08 15:32:00,23.0,17.0,-100.00,NNE,16,17.0,23.0,76,0.00,,,0.00,527.000000,,2013-04-08 21:32:00,
2013-04-08 15:40:00,23.0,17.0,-100.00,NNE,28,16.0,25.0,76,0.00,,,0.00,560.000000,,2013-04-08 21:40:00,
2013-04-08 16:03:00,23.0,17.0,-100.00,NNE,28,16.0,25.0,76,0.00,,,0.00,560.000000,,2013-04-08 22:03:00,
2013-04-08 16:13:00,23.0,17.0,-100.00,NNE,28,16.0,25.0,76,0.00,,,0.00,560.000000,,2013-04-08 22:13:00,
2013-04-08 16:23:00,23.0,17.0,-100.00,NNE,28,16.0,25.0,76,0.00,,,0.00,560.000000,,2013-04-08 22:23:00,
2013-04-08 16:32:00,23.0,17.0,-100.00,NNE,28,16.0,25.0,76,0.00,,,0.00,560.000000,,2013-04-08 22:32:00,
2013-04-08 16:40:00,23.0,17.0,-100.00,NNE,19,14.0,22.0,76,0.00,,,0.00,416.000000,,2013-04-08 22:40:00,
2013-04-08 17:02:00,23.0,17.0,-100.00,NNE,19,14.0,22.0,76,0.00,,,0.00,416.000000,,2013-04-08 23:02:00,
2013-04-08 17:12:00,23.0,17.0,-100.00,NNE,19,14.0,22.0,76,0.00,,,0.00,416.000000,,2013-04-08 23:12:00,
2013-04-08 17:22:00,23.0,17.0,-100.00,NNE,19,14.0,22.0,76,0.00,,,0.00,416.000000,,2013-04-08 23:22:00,
2013-04-08 17:32:00,23.0,17.0,-100.00,NNE,19,14.0,22.0,76,0.00,,,0.00,416.000000,,2013-04-08 23:32:00,
2013-04-08 18:40:00,19.0,14.0,-100.00,North,8,18.0,24.0,80,-99.99,,,0.00,173.000000,,2013-04-09 00:40:00,
2013-04-08 19:02:00,19.0,14.0,-100.00,North,8,18.0,24.0,80,-99.99,,,0.00,173.000000,,2013-04-09 01:02:00,
2013-04-08 19:12:00,19.0,14.0,-100.00,North,8,18.0,24.0,80,-99.99,,,0.00,173.000000,,2013-04-09 01:12:00,
2013-04-08 19:22:00,19.0,14.0,-100.00,North,8,18.0,24.0,80,-99.99,,,0.00,173.000000,,2013-04-09 01:22:00,
2013-04-08 19:33:00,19.0,14.0,-100.00,North,8,18.0,24.0,80,-99.99,,,0.00,173.000000,,2013-04-09 01:33:00,
2013-04-08 19:40:00,17.0,12.0,-100.00,North,11,15.0,23.0,79,0.00,,,0.00,36.000000,,2013-04-09 01:40:00,
2013-04-08 20:02:00,17.0,12.0,-100.00,North,11,15.0,23.0,79,0.00,,,0.00,36.000000,,2013-04-09 02:02:00,
2013-04-08 20:13:00,17.0,12.0,-100.00,North,11,15.0,23.0,79,0.00,,,0.00,36.000000,,2013-04-09 02:13:00,
2013-04-08 20:22:00,17.0,12.0,-100.00,North,11,15.0,23.0,79,0.00,,,0.00,36.000000,,2013-04-09 02:22:00,
2013-04-08 20:32:00,17.0,12.0,-100.00,North,11,15.0,23.0,79,0.00,,,0.00,36.000000,,2013-04-09 02:32:00,
2013-04-08 20:40:00,16.0,11.0,-100.00,North,1,14.0,21.0,81,0.00,,,0.00,0.000000,,2013-04-09 02:40:00,
2013-04-08 21:02:00,16.0,11.0,-100.00,North,1,14.0,21.0,81,0.00,,,0.00,0.000000,,2013-04-09 03:02:00,
2013-04-08 21:12:00,16.0,11.0,-100.00,North,1,14.0,21.0,81,0.00,,,0.00,0.000000,,2013-04-09 03:12:00,
2013-04-08 21:22:00,16.0,11.0,-100.00,North,1,14.0,21.0,81,0.00,,,0.00,0.000000,,2013-04-09 03:22:00,
2013-04-08 21:33:00,16.0,11.0,-100.00,North,1,14.0,21.0,81,0.00,,,0.00,0.000000,,2013-04-09 03:33:00,
2013-04-08 21:40:00,15.0,10.0,-100.00,North,359,15.0,21.0,79,0.00,,,0.00,0.000000,,2013-04-09 03:40:00,
2013-04-08 22:03:00,15.0,10.0,-100.00,North,359,15.0,21.0,79,0.00,,,0.00,0.000000,,2013-04-09 04:03:00,
2013-04-08 22:13:00,15.0,10.0,-100.00,North,359,15.0,21.0,79,0.00,,,0.00,0.000000,,2013-04-09 04:13:00,
2013-04-08 22:23:00,15.0,10.0,-100.00,North,359,15.0,21.0,79,0.00,,,0.00,0.000000,,2013-04-09 04:23:00,
2013-04-08 22:32:00,15.0,10.0,-100.00,North,359,15.0,21.0,79,0.00,,,0.00,0.000000,,2013-04-09 04:32:00,
2013-04-08 22:40:00,14.0,9.0,-100.00,North,10,13.0,22.0,80,0.00,,,0.00,0.000000,,2013-04-09 04:40:00,
2013-04-08 23:02:00,14.0,9.0,-100.00,North,10,13.0,22.0,80,0.00,,,0.00,0.000000,,2013-04-09 05:02:00,
2013-04-08 23:12:00,14.0,9.0,-100.00,North,10,13.0,22.0,80,0.00,,,0.00,0.000000,,2013-04-09 05:12:00,
2013-04-08 23:22:00,14.0,9.0,-100.00,North,10,13.0,22.0,80,0.00,,,0.00,0.000000,,2013-04-09 05:22:00,
2013-04-08 23:32:00,14.0,9.0,-100.00,North,10,13.0,22.0,80,0.00,,,0.00,0.000000,,2013-04-09 05:32:00,
2013-04-08 23:40:00,14.0,9.0,-100.00,SSW,212,11.0,19.0,81,0.00,,,0.00,0.000000,,2013-04-09 05:40:00,